Home > Weather > West Palm Beach > Past weeks

Flag for USA Weather for the Past 2 Weeks in West Palm Beach, Florida, USA

Now
88 °F

Broken clouds.


Feels Like: 95 °F
Forecast: 77 / 86 °F
Wind: 10 mph from South

Location: Palm Beach International Airport

Current Time: May 3, 2016 at 4:36:52 PM

Latest Report: May 3, 2016 at 3:53 PM


Visibility: 10 mi

Pressure: 29.87 "Hg

Humidity: 59%

Dew Point: 72 °F

Location of West Palm BeachLocation

Historic Weather in West Palm Beach — Graph

°F

West Palm Beach Temperature Yesterday

Maximum temperature yesterday: 86 °F (at 2:53 PM)
Minimum temperature yesterday: 77 °F (at 2:53 AM)
Average temperature yesterday: 81 °F

High & Low Weather Summary for the Past Weeks

 TemperatureHumidityPressure
High93 °F (May 3, 2:53 PM)93% (Apr 24, 6:53 AM)30.17 "Hg (Apr 24, 6:53 AM)
Low64 °F (Apr 19, 4:53 AM)37% (Apr 23, 5:53 PM)29.87 "Hg (Apr 23, 4:53 PM)
Average78 °F62%30.01 "Hg
* Reported Apr 18 2:53 PM — May 3 2:53 PM, West Palm Beach, Weather by CustomWeather, © 2016

Note: Actual official high and low records may vary slightly from our data, if they occured in-between our weather recording intervals... More about our weather records

Advertising

West Palm Beach Weather History for the Previous 24 Hours

Scroll right to see more
 ConditionsComfort  
Time TempWeatherWind HumidityBarometerVisibility
2:53 PM
Tue, May 3
93 °FBroken clouds.3 mph42%29.89 "Hg10 mi
1:53 PM86 °FPartly sunny.16 mph63%29.92 "Hg10 mi
12:53 PM88 °FPartly sunny.13 mph54%29.95 "Hg10 mi
11:53 AM86 °FPartly sunny.8 mph53%29.97 "Hg10 mi
10:53 AM84 °FPartly sunny.9 mph63%29.98 "Hg10 mi
9:53 AM82 °FBroken clouds.10 mph70%29.98 "Hg10 mi
8:53 AM80 °FBroken clouds.9 mph76%29.98 "Hg10 mi
7:53 AM78 °FScattered clouds.8 mph82%29.97 "Hg10 mi
6:53 AM76 °FPassing clouds.6 mph85%29.97 "Hg10 mi
5:53 AM77 °FPassing clouds.10 mph85%29.95 "Hg10 mi
4:53 AM77 °FPartly cloudy.8 mph85%29.96 "Hg10 mi
3:53 AM78 °FPassing clouds.6 mph82%29.98 "Hg10 mi
2:53 AM79 °FPassing clouds.9 mph79%29.98 "Hg10 mi
1:53 AM79 °FPartly cloudy.13 mph79%29.99 "Hg10 mi
12:53 AM79 °FPassing clouds.13 mph79%30.01 "Hg10 mi
11:53 PM
Mon, May 2
79 °FPassing clouds.15 mph79%30.02 "Hg10 mi
10:53 PM79 °FPartly cloudy.13 mph79%30.02 "Hg10 mi
9:53 PM80 °FPassing clouds.10 mph74%30.02 "Hg10 mi
8:53 PM80 °FPassing clouds.14 mph74%29.99 "Hg10 mi
7:53 PM80 °FScattered clouds.16 mph74%29.98 "Hg10 mi
6:53 PM81 °FScattered clouds.15 mph69%29.98 "Hg10 mi
5:53 PM83 °FScattered clouds.17 mph68%29.97 "Hg10 mi
4:53 PM85 °FScattered clouds.18 mph61%29.98 "Hg10 mi
Weather by CustomWeather, © 2016

See weather overviewHow to use our weather pages